Location: Castillon
(43.0896°N, 0.2156°E)
Time: 17:15:59
(UTC+00:00)

Cosmos 2322 Rocket - Pass Details

Date: 16 June 2021
Orbit: 833 x 850 km, 71.0° (Epoch: 03 August)

Event Time Altitude Azimuth Distance (km) Brightness Sun altitude
Rises 21:42:21 0° 222° (SW) 3,399 5.2 -16.4°
Reaches altitude 10° 21:44:54 10° 229° (SW) 2,469 4.5 -16.6°
Maximum altitude 21:50:19 45° 301° (WNW) 1,153 3.3 -17.1°
Drops below altitude 10° 21:55:46 10° 14° (NNE) 2,485 5.3 -17.6°
Sets 21:58:21 0° 20° (NNE) 3,424 6.0 -17.9°
